User: anonymous   Login
Location: Cahas Mountain Overlook
(37.0833°N, 80.1000°W)
Time: 18:00:02
(UTC-04:00)
Language:

A-11 Canister half - Orbit

View from above orbital plane
View from above orbital plane
View from above satellite
View from above satellite

Ground track
Ground track

The orbit data is extracted from the following two-line orbital elements,

1 00051U 60009C   24197.33976341 -.00000011  00000-0  70633-3 0  9995
2 00051  47.2142  61.0537 0106462 270.1727  88.6863 12.18329573845608
Epoch (UTC): 15 July 2024 08:09:15
Eccentricity: 0.0106462
inclination: 47.2142°
perigee height: 1515 km
apogee height: 1685 km
right ascension of ascending node: 61.0537°
argument of perigee: 270.1727°
revolutions per day: 12.18329573
mean anomaly at epoch: 88.6863°
orbit number at epoch: 84560

The dashed part of the orbit path shows where the satellite is in the earth's shadow,  

DLR